Terug naar catalogus

WENWU 01

ActiefWetenschapSSO
NORAD 69539·PAYLOAD·🇨🇳 China
Deze satellietnaam is nog niet bevestigd door officiële bronnen.

Gelanceerd Jun 15, 2026 vanaf Jiuquan Satellite Launch Center

Loading…

Volgende Passages (komende 24 uur)

TLE

VersSource: Space-Track

Epoch: Sep 14, 2026, 13:39 UTC

1 69539U 26134B   26257.56887376  .00003271  00000-0  21213-3 0  9995
2 69539  97.6904 327.9361 0015183 331.0638  28.9747 15.08723981 13782

Volg WENWU 01 in realtime met AllMySat

Download on the App Store